Location: Bieujac
(44.5398°N, 0.1549°W)
Time: 22:28:46
(UTC+00:00)

BREEZE-M DEB (TANK) - Pass Details

Date: 17 November 2019
Orbit: 398 x 14925 km, 46.0° (Epoch: 12 December)

Event Time Altitude Azimuth Distance (km) Brightness Sun altitude
Exits shadow 05:40:43 26° 280° (W) 935 3.4 -14.0°
Maximum altitude 05:42:14 75° 199° (SSW) 428 2.2 -13.7°
Drops below altitude 10° 05:44:55 10° 112° (ESE) 1,484 6.5 -13.2°
Sets 05:47:02 0° 111° (ESE) 2,579 8.2 -12.9°
